Location: El Carrer d�Abaix
(41.5797°N, 2.1791°E)
Time: 21:03:18
(UTC+00:00)

Cosmos 2082 Rocket - Pass Details

Date: 04 October 2020
Orbit: 834 x 853 km, 71.0° (Epoch: 27 October)

Event Time Altitude Azimuth Distance (km) Brightness Sun altitude
Rises 18:32:06 0° 338° (NNW) 3,394 5.7 -12.9°
Reaches altitude 10° 18:34:35 10° 342° (NNW) 2,457 4.9 -13.4°
Maximum altitude 18:40:11 64° 64° (ENE) 929 2.2 -14.4°
Drops below altitude 10° 18:45:46 10° 145° (SE) 2,454 4.2 -15.5°
Enters shadow 18:45:47 10° 145° (SE) 2,464 4.2 -15.5°
